Wind_Speed
21 23 23 24 23 21 20 22 25 27 28 29 30 32 32 32 33 35 37 38 39 37 34 35 34 33 32 31 30 30 30 31 33 35 33 32 33 33 31 31 31 31 33
24 24 25 26 27 25 24 24 27 29 31 32 33 33 33 34 35 37 38 39 39 37 34 33 34 33 31 29 28 27 26 28 29 29 30 31 31 30 30 31 33 34 36
27 26 27 29 30 29 27 27 29 32 34 35 34 34 35 35 36 38 40 40 38 36 34 32 32 31 30 29 28 28 27 28 29 29 30 30 30 31 34 35 35 36 39
29 29 31 32 32 32 32 31 32 34 35 36 35 36 37 37 37 39 40 41 39 37 35 32 31 31 30 29 30 28 28 29 30 32 32 33 34 36 36 37 39 41 43
33 33 33 34 35 35 36 35 34 35 36 36 36 37 38 38 39 40 41 41 40 38 35 33 32 32 31 31 31 31 31 31 31 32 33 36 37 39 41 42 45 47 50
34 34 35 36 37 38 38 38 36 36 36 37 37 38 39 40 41 42 42 41 39 38 36 35 34 34 33 33 33 34 34 34 35 36 37 39 42 45 47 48 50 53 56
36 36 37 38 38 38 38 37 37 36 37 37 38 39 40 41 42 42 42 40 39 38 38 37 36 36 36 35 35 35 36 37 39 41 42 45 47 49 51 53 54 57 59
41 40 38 37 36 35 35 36 36 36 36 37 38 40 41 42 42 42 41 41 40 40 40 38 38 38 38 38 37 38 39 41 43 44 46 48 51 53 55 57 59 61 62
44 41 37 34 33 32 33 34 35 36 37 38 39 40 41 41 42 42 43 43 43 42 42 41 41 41 41 41 41 42 43 44 46 48 50 52 54 56 58 61 63 64 65
40 37 34 31 31 31 32 33 34 36 37 38 39 41 41 43 44 45 45 45 45 45 45 45 44 44 44 44 44 45 46 48 50 51 53 55 57 59 61 62 64 65 65
32 31 30 30 30 31 32 33 35 36 38 39 41 42 43 45 46 46 47 47 48 48 48 48 48 48 47 48 48 49 50 51 53 54 56 57 58 60 61 62 62 63 63
29 30 30 31 31 32 33 34 36 37 39 40 42 43 44 45 46 47 49 50 50 51 51 51 51 51 51 51 52 53 54 55 55 56 57 58 58 59 59 60 60 60 61
30 31 32 32 33 34 35 36 38 39 41 42 43 44 46 47 48 49 51 52 53 53 53 53 53 54 54 55 55 56 56 57 57 57 57 57 57 57 58 58 58 58 58
32 33 34 35 36 38 39 40 42 43 44 45 46 47 48 49 51 52 53 54 54 54 55 55 56 56 57 57 57 58 58 57 57 56 55 55 55 55 55 55 56 56 57
34 35 37 39 40 41 42 43 45 46 47 48 49 51 52 52 53 53 54 54 54 55 56 56 57 58 58 59 58 58 57 56 55 55 55 54 54 53 53 53 54 54 53
34 37 39 41 42 43 45 46 47 48 49 50 51 52 52 52 53 53 53 54 55 55 56 57 58 58 58 58 58 57 56 55 54 53 53 52 51 50 50 51 51 50 47
36 38 40 42 43 44 45 47 48 49 49 49 49 49 49 50 51 51 51 52 54 55 56 57 57 57 57 56 55 54 54 53 52 51 50 49 49 47 47 47 46 43 41
37 37 38 40 40 41 41 42 43 42 43 44 44 45 47 48 49 50 51 52 53 54 55 55 55 54 54 53 53 52 51 50 49 48 47 46 45 44 42 41 39 37 34
37 36 34 34 36 38 39 40 40 40 41 42 43 44 46 48 49 50 51 51 52 53 53 52 52 52 51 51 51 50 49 48 46 44 43 42 40 38 36 34 32 30 28
36 36 36 36 37 37 38 40 40 40 41 42 43 44 45 47 48 48 49 49 50 50 50 50 49 49 48 48 48 47 45 43 41 40 38 36 33 31 29 26 24 23 24
31 32 34 35 36 37 37 38 40 40 41 42 43 43 44 44 45 46 47 47 47 47 47 46 46 46 45 44 43 41 39 37 35 33 31 29 25 23 21 19 18 19 20
31 32 33 34 35 35 36 37 38 39 40 40 41 41 41 42 42 43 43 44 44 43 43 42 42 41 40 39 37 35 33 31 28 26 24 20 16 14 13 13 15 16 17
28 29 30 31 32 33 34 35 36 36 37 37 38 38 39 40 40 40 40 40 40 40 39 38 38 36 35 33 31 28 25 23 20 17 13 9 7 7 8 10 12 13 15
25 26 27 29 30 31 32 33 34 34 35 36 37 37 37 37 37 37 37 36 35 34 33 32 31 30 27 25 22 19 16 13 10 6 3 2 2 4 7 8 10 12 15
23 24 25 26 27 29 30 31 32 33 34 34 35 34 34 33 32 32 31 30 29 27 26 24 23 21 19 15 12 9 6 3 0 2 3 4 5 6 7 8 11 13 15
21 22 23 25 26 28 29 30 30 31 31 30 30 29 28 27 27 25 24 23 22 21 20 18 15 13 10 7 4 2 3 5 5 6 6 6 7 7 8 10 12 13 15
Wind_Direction
249 253 257 264 271 276 281 288 291 294 296 297 298 299 302 305 307 309 310 314 316 318 325 329 330 326 319 313 309 301 291 286 283 280 278 275 277 278 276 277 276 278 281
240 248 256 263 270 274 278 283 287 290 291 292 292 294 297 299 300 302 305 309 314 321 321 322 325 327 324 319 314 312 301 295 291 286 280 281 281 281 281 282 283 284 283
239 248 256 264 269 273 276 279 282 286 286 286 289 289 290 292 295 299 302 306 311 316 316 318 320 322 321 320 318 319 309 304 299 296 293 291 286 287 287 285 283 281 280
246 251 255 261 267 273 276 277 280 282 283 284 285 285 287 288 291 294 298 302 305 308 310 313 316 318 318 318 319 318 312 309 303 298 297 295 291 288 287 285 283 282 282
248 253 258 263 268 272 275 278 280 280 280 281 281 281 283 286 289 291 294 297 299 302 305 306 310 311 311 312 315 315 313 309 303 298 298 295 293 291 290 290 289 289 287
258 260 262 265 268 272 275 278 278 277 277 277 278 280 283 285 287 289 291 293 296 299 301 301 304 305 306 308 310 310 308 305 301 298 297 294 293 291 291 290 290 289 290
264 266 267 267 268 270 272 273 274 274 275 276 277 280 281 283 285 288 289 291 294 296 298 298 299 301 303 304 305 304 303 301 300 298 295 294 292 291 290 290 289 289 290
266 269 269 268 268 268 268 270 271 271 273 274 276 278 279 282 284 287 289 291 293 294 295 295 296 297 299 300 301 300 298 297 296 295 294 292 291 291 290 290 289 289 289
265 268 268 266 265 265 265 266 267 269 270 272 275 277 279 282 285 287 289 291 292 292 292 294 294 296 297 297 297 297 296 294 294 293 292 291 291 291 290 290 290 290 290
261 262 262 263 263 263 263 263 264 266 269 271 274 277 279 282 284 286 288 289 290 290 291 292 294 294 295 295 295 295 294 293 293 292 291 291 290 290 290 290 291 291 292
258 259 260 261 261 261 261 262 264 265 267 270 273 276 278 281 283 284 286 287 288 289 290 291 292 293 293 294 294 294 294 294 293 292 291 291 291 291 291 292 293 293 294
257 258 259 259 259 260 261 263 264 266 268 270 273 276 278 280 282 283 284 286 287 288 288 289 290 291 292 293 293 294 294 294 293 293 293 293 293 293 294 294 295 295 295
252 254 256 258 260 262 262 264 266 268 269 271 274 276 278 280 281 282 284 285 285 286 287 288 289 290 292 293 294 295 295 295 295 295 295 295 295 296 296 296 296 297 297
250 252 255 259 262 263 264 265 267 269 271 273 275 276 278 279 280 281 283 283 284 285 286 288 289 290 292 294 294 295 296 296 296 296 296 297 297 297 297 298 298 298 299
252 255 258 261 263 264 265 266 269 271 273 274 275 276 277 278 279 280 281 282 283 285 286 288 291 292 293 294 294 294 295 295 296 296 297 297 298 298 298 299 299 300 301
258 259 260 262 264 266 268 269 271 272 273 274 276 276 277 277 278 279 281 282 284 287 289 291 292 293 293 293 293 294 294 294 295 296 297 298 298 299 299 300 301 302 302
265 264 265 265 266 268 270 270 270 271 272 273 275 276 277 279 280 282 284 287 289 290 291 292 292 293 293 293 293 293 294 294 295 296 297 297 298 299 301 302 303 303 303
273 272 270 269 269 269 269 270 270 272 273 275 278 281 284 286 288 290 291 291 291 291 291 292 292 292 293 293 293 294 294 294 295 296 297 298 299 301 301 302 302 303 305
277 277 276 273 271 269 270 271 276 279 281 284 287 289 290 292 292 292 292 292 292 292 292 292 293 293 293 294 294 294 295 295 295 296 297 298 299 300 300 300 301 304 306
275 275 275 276 275 277 281 285 289 292 293 294 294 294 293 293 293 293 293 293 293 294 294 294 294 294 295 295 296 295 295 295 295 295 295 296 297 297 298 300 302 306 311
275 276 279 283 287 291 294 294 295 296 296 296 296 296 295 295 296 296 296 296 296 296 296 295 295 296 296 296 296 296 295 295 294 294 294 295 295 295 297 301 307 313 318
284 286 288 292 295 297 297 297 298 298 298 298 299 299 299 299 298 298 298 297 297 297 297 297 297 298 297 297 296 296 295 294 293 293 293 293 292 294 301 310 318 325 330
291 293 295 296 298 299 300 300 301 301 301 301 301 301 301 301 301 300 300 299 299 299 298 298 298 298 298 297 295 294 294 294 294 293 291 290 293 305 319 329 335 340 344
296 298 298 300 301 302 303 304 305 305 305 305 304 304 303 303 303 303 303 302 302 302 302 301 301 301 301 299 297 295 293 293 292 291 292 316 349 354 353 354 356 359 2
301 303 304 305 307 308 309 310 310 309 308 308 307 307 306 306 307 308 308 308 308 309 310 310 309 308 307 305 302 299 296 291 299 89 78 65 45 28 21 19 19 17 16
307 309 311 312 313 314 314 314 314 314 313 312 312 311 311 312 314 315 315 316 317 319 321 323 325 326 328 329 337 36 89 96 94 88 80 70 61 54 49 44 37 31 29
Height
5864 5865 5865 5864 5865 5867 5869 5870 5868 5867 5867 5866 5865 5864 5863 5862 5861 5859 5857 5855 5853 5851 5849 5846 5842 5839 5835 5833 5831 5830 5829 5828 5828 5827 5828 5828 5828 5827 5827 5826 5825 5824 5824
5860 5861 5861 5861 5861 5863 5865 5865 5864 5863 5861 5860 5860 5859 5858 5857 5855 5853 5851 5850 5848 5846 5844 5842 5838 5834 5830 5827 5826 5824 5823 5822 5821 5821 5820 5821 5822 5820 5819 5818 5817 5816 5814
5856 5858 5858 5858 5857 5858 5859 5860 5859 5857 5855 5854 5854 5853 5852 5851 5849 5847 5846 5844 5843 5842 5839 5837 5834 5830 5827 5824 5821 5819 5817 5816 5815 5815 5815 5814 5814 5813 5812 5810 5808 5806 5805
5853 5854 5854 5853 5853 5853 5853 5853 5853 5851 5849 5848 5848 5846 5845 5844 5843 5842 5840 5838 5837 5836 5834 5831 5828 5825 5822 5819 5816 5814 5812 5810 5809 5808 5807 5806 5805 5803 5802 5801 5798 5796 5793
5845 5847 5848 5848 5848 5847 5846 5846 5845 5844 5843 5842 5841 5839 5838 5837 5836 5835 5834 5832 5831 5829 5827 5825 5822 5820 5817 5814 5811 5808 5806 5803 5802 5801 5799 5797 5795 5793 5791 5789 5786 5783 5779
5839 5841 5842 5842 5841 5841 5840 5838 5838 5836 5835 5834 5833 5831 5830 5829 5828 5827 5826 5825 5824 5822 5820 5818 5815 5813 5810 5807 5804 5801 5799 5796 5794 5792 5790 5788 5785 5782 5779 5777 5773 5769 5765
5832 5833 5834 5834 5834 5833 5832 5830 5830 5829 5828 5826 5825 5824 5823 5822 5820 5819 5818 5817 5815 5814 5812 5810 5807 5805 5802 5799 5796 5794 5791 5788 5785 5783 5780 5776 5773 5770 5766 5763 5760 5756 5751
5824 5825 5825 5825 5825 5824 5823 5822 5822 5821 5820 5819 5818 5817 5815 5813 5812 5811 5809 5808 5807 5805 5803 5801 5799 5796 5793 5790 5787 5785 5782 5778 5775 5772 5768 5765 5761 5757 5752 5748 5744 5741 5737
5815 5815 5816 5816 5816 5816 5816 5815 5814 5813 5812 5811 5810 5809 5807 5806 5804 5802 5800 5799 5797 5795 5793 5791 5788 5786 5783 5780 5777 5774 5771 5767 5764 5760 5757 5752 5747 5743 5738 5733 5728 5724 5721
5806 5806 5807 5807 5807 5808 5807 5807 5807 5806 5805 5804 5803 5801 5799 5798 5796 5794 5792 5790 5788 5785 5783 5780 5778 5775 5772 5769 5766 5763 5759 5756 5752 5748 5743 5739 5734 5729 5723 5718 5712 5706 5702
5797 5797 5798 5799 5799 5799 5799 5799 5799 5798 5797 5796 5794 5793 5791 5789 5787 5785 5783 5780 5778 5775 5772 5769 5766 5763 5760 5757 5753 5750 5747 5743 5739 5734 5730 5725 5720 5714 5708 5702 5696 5690 5684
5789 5790 5790 5790 5791 5791 5791 5791 5790 5790 5789 5787 5786 5784 5782 5780 5778 5775 5772 5770 5767 5764 5761 5757 5754 5751 5748 5744 5740 5737 5733 5729 5725 5720 5715 5710 5705 5699 5694 5688 5681 5675 5668
5782 5782 5782 5782 5783 5783 5782 5782 5781 5780 5779 5778 5776 5774 5772 5770 5767 5764 5761 5758 5755 5752 5748 5745 5741 5738 5734 5731 5727 5723 5718 5714 5710 5705 5700 5695 5690 5685 5679 5673 5667 5660 5653
5773 5774 5774 5774 5774 5774 5773 5772 5771 5770 5769 5767 5765 5763 5760 5758 5755 5752 5749 5746 5742 5739 5735 5732 5728 5724 5721 5716 5712 5708 5704 5700 5695 5691 5686 5681 5676 5671 5665 5659 5653 5646 5639
5764 5765 5765 5765 5764 5764 5763 5762 5761 5759 5757 5755 5753 5751 5748 5745 5742 5739 5736 5732 5729 5725 5722 5718 5714 5711 5707 5702 5698 5694 5690 5686 5681 5677 5672 5668 5663 5658 5651 5645 5639 5632 5626
5755 5756 5755 5754 5754 5753 5752 5750 5749 5747 5745 5742 5740 5738 5735 5732 5729 5726 5722 5719 5715 5712 5708 5705 5701 5697 5692 5688 5684 5680 5676 5672 5668 5664 5659 5655 5650 5645 5639 5632 5626 5620 5614
5746 5745 5744 5744 5743 5741 5740 5738 5736 5734 5732 5730 5727 5725 5722 5719 5716 5712 5709 5705 5702 5698 5694 5691 5687 5682 5677 5674 5670 5666 5662 5658 5655 5651 5646 5642 5637 5632 5627 5621 5615 5609 5603
5736 5735 5734 5733 5732 5730 5728 5726 5724 5722 5720 5717 5714 5712 5709 5706 5703 5699 5696 5692 5688 5684 5681 5677 5673 5668 5663 5659 5656 5652 5648 5645 5641 5637 5633 5629 5625 5620 5616 5611 5605 5600 5595
5728 5726 5724 5723 5722 5720 5718 5715 5713 5710 5708 5705 5702 5699 5697 5693 5690 5686 5683 5679 5674 5670 5667 5663 5658 5654 5650 5645 5642 5638 5635 5631 5628 5625 5621 5618 5614 5610 5606 5602 5598 5594 5589
5720 5718 5716 5714 5712 5710 5707 5705 5702 5700 5697 5694 5691 5688 5685 5681 5677 5673 5669 5665 5660 5656 5652 5648 5644 5640 5636 5632 5628 5624 5621 5618 5615 5613 5610 5607 5604 5601 5598 5595 5592 5589 5585
5712 5710 5708 5705 5703 5701 5698 5696 5693 5690 5687 5684 5680 5676 5672 5669 5665 5660 5656 5651 5647 5643 5638 5635 5631 5627 5623 5619 5615 5612 5609 5606 5604 5602 5600 5598 5596 5594 5592 5590 5587 5584 5581
5704 5702 5700 5698 5695 5693 5690 5687 5684 5680 5677 5673 5669 5665 5661 5657 5653 5648 5643 5639 5634 5630 5626 5622 5618 5614 5611 5608 5604 5601 5598 5596 5594 5593 5592 5591 5590 5589 5588 5586 5584 5581 5578
5698 5696 5693 5691 5688 5685 5682 5678 5674 5671 5667 5663 5659 5655 5650 5646 5641 5637 5632 5628 5623 5619 5615 5611 5607 5604 5600 5597 5594 5592 5589 5588 5587 5586 5586 5586 5586 5586 5585 5584 5582 5579 5576
5691 5689 5687 5684 5681 5678 5674 5670 5666 5662 5658 5654 5649 5645 5641 5636 5632 5627 5622 5618 5613 5609 5605 5601 5598 5594 5591 5588 5586 5584 5583 5583 5583 5583 5583 5584 5585 5585 5584 5583 5581 5578 5575
5686 5684 5681 5678 5675 5671 5667 5663 5659 5654 5650 5645 5640 5636 5632 5627 5623 5618 5613 5609 5605 5601 5598 5594 5590 5587 5585 5583 5581 5580 5580 5580 5581 5582 5583 5584 5585 5585 5584 5583 5581 5578 5575
5681 5679 5676 5672 5669 5665 5661 5657 5652 5647 5643 5638 5633 5629 5624 5620 5616 5612 5608 5603 5600 5596 5593 5589 5586 5584 5581 5580 5579 5579 5580 5581 5582 5583 5584 5585 5585 5585 5585 5583 5582 5579 5576